Time,TemperatureF,DewpointF,PressureIn,WindDirection,WindDirectionDegrees,WindSpeedMPH,WindSpeedGustMPH,Humidity,HourlyPrecipIn,Conditions,Clouds,dailyrainin,SoftwareType,DateUTC
2013-05-16 00:06:00,81.7,31.1,29.73,SW,225,2.7,-999.0,16,-99.99,,,0.00,Acu-Link.com,2013-05-16 06:06:00,
2013-05-16 00:21:00,81.3,30.8,29.73,WNW,292,5.8,-999.0,16,-99.99,,,0.00,Acu-Link.com,2013-05-16 06:21:00,
2013-05-16 00:36:00,81.0,30.6,29.72,West,270,4.7,-999.0,16,-99.99,,,0.00,Acu-Link.com,2013-05-16 06:36:00,
2013-05-16 00:51:00,80.4,30.1,29.72,WNW,292,6.3,-999.0,16,-99.99,,,0.00,Acu-Link.com,2013-05-16 06:51:00,
2013-05-16 01:06:00,80.2,29.9,29.72,WNW,292,5.8,-999.0,16,-99.99,,,0.00,Acu-Link.com,2013-05-16 07:06:00,
2013-05-16 01:22:00,79.9,29.7,29.72,North,0,3.7,-999.0,16,-99.99,,,0.00,Acu-Link.com,2013-05-16 07:22:00,
2013-05-16 01:37:00,79.3,30.7,29.73,SW,225,7.3,-999.0,17,-99.99,,,0.00,Acu-Link.com,2013-05-16 07:37:00,
2013-05-16 01:52:00,78.4,30.0,29.73,WNW,292,2.7,-999.0,17,-99.99,,,0.00,Acu-Link.com,2013-05-16 07:52:00,
2013-05-16 02:09:00,77.9,31.0,29.73,WNW,292,2.7,-999.0,18,-99.99,,,0.00,Acu-Link.com,2013-05-16 08:09:00,
2013-05-16 02:24:00,77.5,30.6,29.73,NNW,337,4.2,-999.0,18,-99.99,,,0.00,Acu-Link.com,2013-05-16 08:24:00,
2013-05-16 02:39:00,77.0,30.2,29.74,NW,315,3.7,-999.0,18,-99.99,,,0.00,Acu-Link.com,2013-05-16 08:39:00,
2013-05-16 02:54:00,76.5,29.8,29.74,NNE,22,8.9,-999.0,18,-99.99,,,0.00,Acu-Link.com,2013-05-16 08:54:00,
2013-05-16 03:09:00,77.5,30.6,29.74,SW,225,3.7,-999.0,18,-99.99,,,0.00,Acu-Link.com,2013-05-16 09:09:00,
2013-05-16 03:24:00,77.5,30.6,29.74,West,270,4.7,-999.0,18,-99.99,,,0.00,Acu-Link.com,2013-05-16 09:24:00,
2013-05-16 03:39:00,76.6,29.9,29.75,NW,315,4.7,-999.0,18,-99.99,,,0.00,Acu-Link.com,2013-05-16 09:39:00,
2013-05-16 03:54:00,76.8,30.1,29.75,NNW,337,5.3,-999.0,18,-99.99,,,0.00,Acu-Link.com,2013-05-16 09:54:00,
2013-05-16 04:10:00,78.1,31.1,29.75,WNW,292,5.3,-999.0,18,-99.99,,,0.00,Acu-Link.com,2013-05-16 10:10:00,
2013-05-16 04:25:00,75.2,30.1,29.76,WNW,292,2.2,-999.0,19,-99.99,,,0.00,Acu-Link.com,2013-05-16 10:25:00,
2013-05-16 04:40:00,73.6,31.3,29.76,NW,315,2.2,-999.0,21,-99.99,,,0.00,Acu-Link.com,2013-05-16 10:40:00,
2013-05-16 04:56:00,72.5,31.5,29.76,SW,225,2.2,-999.0,22,-99.99,,,0.00,Acu-Link.com,2013-05-16 10:56:00,
2013-05-16 05:11:00,71.2,31.5,29.76,NNW,337,2.7,-999.0,23,-99.99,,,0.00,Acu-Link.com,2013-05-16 11:11:00,
2013-05-16 05:26:00,70.3,31.8,29.77,WSW,247,1.7,-999.0,24,-99.99,,,0.00,Acu-Link.com,2013-05-16 11:26:00,
2013-05-16 05:41:00,68.9,32.6,29.77,NE,45,2.2,-999.0,26,-99.99,,,0.00,Acu-Link.com,2013-05-16 11:41:00,
2013-05-16 05:56:00,71.8,32.0,29.78,WNW,292,3.2,-999.0,23,-99.99,,,0.00,Acu-Link.com,2013-05-16 11:56:00,
2013-05-16 06:11:00,72.3,31.3,29.78,West,270,2.7,-999.0,22,-99.99,,,0.00,Acu-Link.com,2013-05-16 12:11:00,
2013-05-16 06:26:00,72.5,31.5,29.78,West,270,1.7,-999.0,22,-99.99,,,0.00,Acu-Link.com,2013-05-16 12:26:00,
2013-05-16 06:42:00,73.8,32.6,29.78,NNW,337,4.2,-999.0,22,-99.99,,,0.00,Acu-Link.com,2013-05-16 12:42:00,
2013-05-16 06:57:00,75.4,32.7,29.79,SW,225,0.0,-999.0,21,-99.99,,,0.00,Acu-Link.com,2013-05-16 12:57:00,
2013-05-16 07:12:00,73.8,32.6,29.80,SSE,157,2.2,-999.0,22,-99.99,,,0.00,Acu-Link.com,2013-05-16 13:12:00,
2013-05-16 07:27:00,74.8,34.5,29.81,South,180,2.7,-999.0,23,-99.99,,,0.00,Acu-Link.com,2013-05-16 13:27:00,
2013-05-16 07:43:00,78.3,33.9,29.81,SW,225,2.7,-999.0,20,-99.99,,,0.00,Acu-Link.com,2013-05-16 13:43:00,
2013-05-16 07:58:00,77.2,33.0,29.81,WSW,247,5.3,-999.0,20,-99.99,,,0.00,Acu-Link.com,2013-05-16 13:58:00,
2013-05-16 08:13:00,78.3,33.9,29.82,WSW,247,7.8,-999.0,20,-99.99,,,0.00,Acu-Link.com,2013-05-16 14:13:00,
2013-05-16 08:28:00,77.9,33.6,29.82,WSW,247,8.9,-999.0,20,-99.99,,,0.00,Acu-Link.com,2013-05-16 14:28:00,
2013-05-16 08:44:00,80.8,34.7,29.82,WSW,247,8.3,-999.0,19,-99.99,,,0.00,Acu-Link.com,2013-05-16 14:44:00,
2013-05-16 08:59:00,82.4,34.6,29.84,WSW,247,4.2,-999.0,18,-99.99,,,0.00,Acu-Link.com,2013-05-16 14:59:00,
2013-05-16 09:14:00,82.9,35.0,29.83,West,270,7.3,-999.0,18,-99.99,,,0.00,Acu-Link.com,2013-05-16 15:14:00,
2013-05-16 09:29:00,81.7,34.1,29.82,SSW,202,5.8,-999.0,18,-99.99,,,0.00,Acu-Link.com,2013-05-16 15:29:00,
2013-05-16 09:44:00,83.1,35.2,29.82,SW,225,5.3,-999.0,18,-99.99,,,0.00,Acu-Link.com,2013-05-16 15:44:00,
2013-05-16 10:00:00,84.7,35.0,29.82,West,270,7.3,-999.0,17,-99.99,,,0.00,Acu-Link.com,2013-05-16 16:00:00,
2013-05-16 10:15:00,85.8,32.8,29.83,WNW,292,9.4,-999.0,15,-99.99,,,0.00,Acu-Link.com,2013-05-16 16:15:00,
2013-05-16 10:30:00,86.2,34.7,29.84,SW,225,6.8,-999.0,16,-99.99,,,0.00,Acu-Link.com,2013-05-16 16:30:00,
2013-05-16 10:45:00,86.4,34.9,29.83,WNW,292,3.7,-999.0,16,-99.99,,,0.00,Acu-Link.com,2013-05-16 16:45:00,
2013-05-16 11:00:00,86.2,34.7,29.83,NNW,337,3.7,-999.0,16,-99.99,,,0.00,Acu-Link.com,2013-05-16 17:00:00,
2013-05-16 11:15:00,87.4,34.1,29.82,West,270,5.3,-999.0,15,-99.99,,,0.00,Acu-Link.com,2013-05-16 17:15:00,
2013-05-16 11:31:00,87.4,34.1,29.81,WNW,292,6.3,-999.0,15,-99.99,,,0.00,Acu-Link.com,2013-05-16 17:31:00,
2013-05-16 11:46:00,88.3,34.8,29.81,SW,225,6.8,-999.0,15,-99.99,,,0.00,Acu-Link.com,2013-05-16 17:46:00,
2013-05-16 12:01:00,88.9,33.5,29.80,West,270,9.9,-999.0,14,-99.99,,,0.00,Acu-Link.com,2013-05-16 18:01:00,
2013-05-16 12:16:00,89.1,33.7,29.79,WSW,247,10.4,-999.0,14,-99.99,,,0.00,Acu-Link.com,2013-05-16 18:16:00,
2013-05-16 12:31:00,89.8,34.2,29.79,West,270,11.4,-999.0,14,-99.99,,,0.00,Acu-Link.com,2013-05-16 18:31:00,
2013-05-16 12:47:00,90.1,34.5,29.79,West,270,8.9,-999.0,14,-99.99,,,0.00,Acu-Link.com,2013-05-16 18:47:00,
2013-05-16 13:02:00,91.0,33.3,29.77,WSW,247,11.9,-999.0,13,-99.99,,,0.00,Acu-Link.com,2013-05-16 19:02:00,
2013-05-16 13:17:00,92.5,34.5,29.78,WSW,247,11.9,-999.0,13,-99.99,,,0.00,Acu-Link.com,2013-05-16 19:17:00,
2013-05-16 13:32:00,91.0,33.3,29.78,NNW,337,8.3,-999.0,13,-99.99,,,0.00,Acu-Link.com,2013-05-16 19:32:00,
2013-05-16 13:48:00,92.8,32.7,29.76,WSW,247,17.6,-999.0,12,-99.99,,,0.00,Acu-Link.com,2013-05-16 19:48:00,
2013-05-16 14:03:00,91.4,31.6,29.75,SW,225,6.3,-999.0,12,-99.99,,,0.00,Acu-Link.com,2013-05-16 20:03:00,
2013-05-16 14:18:00,91.4,31.6,29.75,WNW,292,8.3,-999.0,12,-99.99,,,0.00,Acu-Link.com,2013-05-16 20:18:00,
2013-05-16 14:33:00,92.7,30.5,29.74,West,270,9.4,-999.0,11,-99.99,,,0.00,Acu-Link.com,2013-05-16 20:33:00,
2013-05-16 14:49:00,93.9,33.6,29.74,WSW,247,8.9,-999.0,12,-99.99,,,0.00,Acu-Link.com,2013-05-16 20:49:00,
2013-05-16 15:04:00,93.4,31.0,29.73,WSW,247,5.8,-999.0,11,-99.99,,,0.00,Acu-Link.com,2013-05-16 21:04:00,
2013-05-16 15:19:00,93.6,31.2,29.71,West,270,7.3,-999.0,11,-99.99,,,0.00,Acu-Link.com,2013-05-16 21:19:00,
2013-05-16 15:34:00,93.6,31.2,29.71,West,270,9.4,-999.0,11,-99.99,,,0.00,Acu-Link.com,2013-05-16 21:34:00,
2013-05-16 15:49:00,93.0,30.7,29.69,WSW,247,9.4,-999.0,11,-99.99,,,0.00,Acu-Link.com,2013-05-16 21:49:00,
2013-05-16 16:04:00,95.2,30.0,29.69,WSW,247,14.0,-999.0,10,-99.99,,,0.00,Acu-Link.com,2013-05-16 22:04:00,
2013-05-16 16:19:00,94.5,29.5,29.68,WSW,247,7.3,-999.0,10,-99.99,,,0.00,Acu-Link.com,2013-05-16 22:19:00,
2013-05-16 16:34:00,93.9,29.1,29.68,NW,315,8.3,-999.0,10,-99.99,,,0.00,Acu-Link.com,2013-05-16 22:34:00,
2013-05-16 16:49:00,94.3,29.4,29.68,West,270,13.0,-999.0,10,-99.99,,,0.00,Acu-Link.com,2013-05-16 22:49:00,
2013-05-16 17:05:00,95.4,30.2,29.67,SW,225,9.4,-999.0,10,-99.99,,,0.00,Acu-Link.com,2013-05-16 23:05:00,
2013-05-16 17:20:00,95.9,30.6,29.67,West,270,12.5,-999.0,10,-99.99,,,0.00,Acu-Link.com,2013-05-16 23:20:00,
2013-05-16 17:35:00,95.0,29.9,29.67,WSW,247,8.9,-999.0,10,-99.99,,,0.00,Acu-Link.com,2013-05-16 23:35:00,
2013-05-16 17:50:00,93.6,28.8,29.66,WNW,292,13.5,-999.0,10,-99.99,,,0.00,Acu-Link.com,2013-05-16 23:50:00,
2013-05-16 18:05:00,94.1,29.2,29.66,West,270,7.8,-999.0,10,-99.99,,,0.00,Acu-Link.com,2013-05-17 00:05:00,
2013-05-16 18:20:00,93.6,28.8,29.66,WSW,247,12.5,-999.0,10,-99.99,,,0.00,Acu-Link.com,2013-05-17 00:20:00,
2013-05-16 18:35:00,93.0,28.4,29.66,West,270,3.7,-999.0,10,-99.99,,,0.00,Acu-Link.com,2013-05-17 00:35:00,
2013-05-16 18:50:00,91.6,29.6,29.66,SW,225,3.2,-999.0,11,-99.99,,,0.00,Acu-Link.com,2013-05-17 00:50:00,
2013-05-16 19:06:00,89.8,28.3,29.65,WSW,247,4.2,-999.0,11,-99.99,,,0.00,Acu-Link.com,2013-05-17 01:06:00,
2013-05-16 19:21:00,88.9,27.6,29.65,SW,225,5.3,-999.0,11,-99.99,,,0.00,Acu-Link.com,2013-05-17 01:21:00,
2013-05-16 19:36:00,88.2,27.1,29.66,SSW,202,5.3,-999.0,11,-99.99,,,0.00,Acu-Link.com,2013-05-17 01:36:00,
2013-05-16 19:51:00,87.6,26.6,29.66,WSW,247,7.8,-999.0,11,-99.99,,,0.00,Acu-Link.com,2013-05-17 01:51:00,
2013-05-16 20:06:00,86.4,27.8,29.67,WSW,247,5.8,-999.0,12,-99.99,,,0.00,Acu-Link.com,2013-05-17 02:06:00,
2013-05-16 20:21:00,85.6,27.2,29.66,WSW,247,2.7,-999.0,12,-99.99,,,0.00,Acu-Link.com,2013-05-17 02:21:00,
2013-05-16 20:36:00,83.8,27.7,29.67,West,270,2.2,-999.0,13,-99.99,,,0.00,Acu-Link.com,2013-05-17 02:36:00,
2013-05-16 20:52:00,82.2,28.3,29.67,West,270,2.2,-999.0,14,-99.99,,,0.00,Acu-Link.com,2013-05-17 02:52:00,
2013-05-16 21:07:00,81.0,27.3,29.67,WNW,292,0.0,-999.0,14,-99.99,,,0.00,Acu-Link.com,2013-05-17 03:07:00,
2013-05-16 21:22:00,79.5,27.8,29.68,NW,315,0.0,-999.0,15,-99.99,,,0.00,Acu-Link.com,2013-05-17 03:22:00,
2013-05-16 21:37:00,79.3,27.6,29.68,WSW,247,1.7,-999.0,15,-99.99,,,0.00,Acu-Link.com,2013-05-17 03:37:00,
2013-05-16 21:52:00,79.3,27.6,29.68,West,270,1.1,-999.0,15,-99.99,,,0.00,Acu-Link.com,2013-05-17 03:52:00,
2013-05-16 22:08:00,78.3,26.8,29.69,WNW,292,1.7,-999.0,15,-99.99,,,0.00,Acu-Link.com,2013-05-17 04:08:00,
2013-05-16 22:23:00,77.5,27.8,29.69,NNW,337,2.7,-999.0,16,-99.99,,,0.00,Acu-Link.com,2013-05-17 04:23:00,
2013-05-16 22:38:00,77.5,27.8,29.69,North,0,3.2,-999.0,16,-99.99,,,0.00,Acu-Link.com,2013-05-17 04:38:00,
2013-05-16 22:54:00,76.3,29.7,29.69,NNW,337,2.2,-999.0,18,-99.99,,,0.00,Acu-Link.com,2013-05-17 04:54:00,
2013-05-16 23:09:00,75.9,28.0,29.70,NW,315,2.2,-999.0,17,-99.99,,,0.00,Acu-Link.com,2013-05-17 05:09:00,
2013-05-16 23:24:00,75.0,29.9,29.69,NNW,337,2.2,-999.0,19,-99.99,,,0.00,Acu-Link.com,2013-05-17 05:24:00,
2013-05-16 23:39:00,73.4,28.6,29.70,NW,315,0.0,-999.0,19,-99.99,,,0.00,Acu-Link.com,2013-05-17 05:39:00,
2013-05-16 23:55:00,72.1,28.8,29.69,WNW,292,0.0,-999.0,20,-99.99,,,0.00,Acu-Link.com,2013-05-17 05:55:00,